Starlink 11361

operational
NORAD ID: 61585 Int'l Des: 2024-187 Owner: SPXS Country: US Constellation: starlink
LEOCIRCULAR

Über Starlink 11361

Beschreibung wird geladen...

Live-Position

3D-Globus wird geladen...

Nächste Überflüge

Höhenverlauf

Altitude vs Time

uPlot chart will show altitude changes over time

Zweizeiliger Elementsatz

1 61585U 24187M 25353.11733076 .00170867 00000-0 13790-2 0 9994
2 61585 53.1575 333.5796 0001074 136.0346 224.0758 15.69837631 68094
Epoch: 19. Dez. 2025 • Age: 15 hours

Aktueller Status

Höhe 359.4 km
Geschwindigkeit 7.70 km/s
Subsatellitenpunkt 9.40°N, 23.24°W
Startdatum 18. Okt. 2024
Alter 1.1 years
Typ internet

Technische Details

Klassifizierung Payload
Masse 960.00 kg
Trockenmasse 910.00 kg
Gesamtmasse 960.00 kg
Länge 0.30 m
Durchmesser 4.10 m
Spannweite 29.00 m
Form Box + pan
Hersteller SPXS
Bus-Typ Starlink V2MD
Phasenstatus In Orbit
Besitzer/Staat SPXS/US

Große Konstellationen

Loading constellations...